| time (UTC) | temp F | wind direction | speed MPH | gust MPH | rain 1hr in | rain 24hr in | rain mn in | humidity % | barometer mb |
| 20260831141533 | 42 | 149 | 2.0 | 4.0 | 0.00 | 0.00 | 0.00 | 100 | 1014.7 |
| 20260831140031 | 42 | 157 | 1.0 | 3.0 | 0.00 | 0.00 | 0.00 | 100 | 1014.6 |
| 20260831134533 | 42 | 157 | 1.0 | 3.0 | 0.00 | 0.00 | 0.00 | 100 | 1014.6 |
| 20260831133033 | 42 | 157 | 2.0 | 3.0 | 0.00 | 0.00 | 0.00 | 100 | 1014.6 |
| 20260831131607 | 42 | 157 | 3.0 | 4.0 | 0.00 | 0.00 | 0.00 | 100 | 1014.6 |
| 20260831130030 | 42 | 157 | 3.0 | 4.0 | 0.00 | 0.00 | 0.00 | 92 | 1014.7 |
| 20260831124530 | 43 | 156 | 3.0 | 4.0 | 0.00 | 0.00 | 0.00 | 92 | 1014.6 |
| 20260831123028 | 43 | 155 | 2.0 | 4.0 | 0.00 | 0.00 | 0.00 | 91 | 1014.6 |
| 20260831121529 | 43 | 157 | 3.0 | 5.0 | 0.00 | 0.00 | 0.00 | 91 | 1014.6 |
| 20260831120030 | 43 | 157 | 2.0 | 5.0 | 0.00 | 0.00 | 0.00 | 91 | 1014.7 |
| 20260831114531 | 43 | 157 | 3.0 | 4.0 | 0.00 | 0.00 | 0.00 | 91 | 1014.7 |
| 20260831113031 | 44 | 157 | 2.0 | 4.0 | 0.00 | 0.00 | 0.00 | 91 | 1014.6 |
| 20260831111648 | 44 | 141 | 2.0 | 4.0 | 0.00 | 0.00 | 0.00 | 90 | 1014.7 |
| 20260831104530 | 45 | 157 | 2.0 | 4.0 | 0.00 | 0.00 | 0.00 | 90 | 1014.7 |
| 20260831103028 | 45 | 122 | 1.0 | 3.0 | 0.00 | 0.00 | 0.00 | 90 | 1014.8 |
| 20260831101530 | 45 | 155 | 3.0 | 4.0 | 0.00 | 0.00 | 0.00 | 90 | 1014.9 |
| 20260831100029 | 45 | 147 | 2.0 | 5.0 | 0.00 | 0.00 | 0.00 | 90 | 1015.0 |
| 20260831093107 | 45 | 150 | 3.0 | 4.0 | 0.00 | 0.00 | 0.00 | 89 | 1015.2 |
| 20260831090032 | 46 | 155 | 2.0 | 5.0 | 0.00 | 0.00 | 0.00 | 89 | 1015.4 |
| 20260831084530 | 46 | 164 | 2.0 | 5.0 | 0.00 | 0.00 | 0.00 | 88 | 1015.5 |
| 20260831083103 | 46 | 162 | 2.0 | 4.0 | 0.00 | 0.00 | 0.00 | 88 | 1015.6 |
| 20260831081645 | 47 | 154 | 2.0 | 3.0 | 0.00 | 0.00 | 0.00 | 88 | 1015.8 |
| 20260831080030 | 47 | 150 | 2.0 | 4.0 | 0.00 | 0.00 | 0.00 | 87 | 1015.8 |
| 20260831074534 | 47 | 157 | 4.0 | 5.0 | 0.00 | 0.00 | 0.00 | 87 | 1015.8 |
| 20260831073030 | 48 | 170 | 3.0 | 5.0 | 0.00 | 0.00 | 0.00 | 87 | 1015.9 |
| 20260831071531 | 48 | 157 | 3.0 | 4.0 | 0.00 | 0.00 | 0.00 | 86 | 1016.0 |
| 20260831070108 | 48 | 157 | 2.0 | 3.0 | 0.00 | 0.00 | 0.00 | 85 | 1016.1 |
| 20260831064529 | 49 | 142 | 1.0 | 4.0 | 0.00 | 0.00 | 0.00 | 84 | 1016.1 |
| 20260831063030 | 50 | 135 | 0.0 | 1.0 | 0.00 | 0.00 | 0.00 | 83 | 1016.2 |
| 20260831060105 | 51 | 157 | 3.0 | 4.0 | 0.00 | 0.00 | 0.00 | 82 | 1016.3 |
| 20260831054531 | 51 | 158 | 3.0 | 5.0 | 0.00 | 0.00 | 0.00 | 81 | 1016.4 |
| 20260831053031 | 52 | 158 | 4.0 | 6.0 | 0.00 | 0.00 | 0.00 | 79 | 1016.5 |
| 20260831051646 | 52 | 160 | 3.0 | 4.0 | 0.00 | 0.00 | 0.00 | 79 | 1016.6 |
| 20260831044645 | 53 | 169 | 3.0 | 5.0 | 0.00 | 0.00 | 0.00 | 77 | 1016.7 |
| 20260831043030 | 54 | 168 | 4.0 | 5.0 | 0.00 | 0.00 | 0.00 | 75 | 1016.8 |
| 20260831041556 | 56 | 158 | 3.0 | 4.0 | 0.00 | 0.00 | 0.00 | 72 | 1016.8 |
| 20260831040028 | 57 | 157 | 4.0 | 5.0 | 0.00 | 0.00 | 0.00 | 69 | 1016.8 |
| 20260831034527 | 59 | 156 | 4.0 | 5.0 | 0.00 | 0.00 | 0.00 | 64 | 1016.6 |
| 20260831033031 | 63 | 307 | 1.0 | 5.0 | 0.00 | 0.00 | 0.00 | 55 | 1016.4 |
| 20260831030030 | 65 | 248 | 3.0 | 8.0 | 0.00 | 0.00 | 0.00 | 50 | 1016.4 |
| 20260831024530 | 66 | 256 | 5.0 | 9.0 | 0.00 | 0.00 | 0.00 | 50 | 1016.3 |
| 20260831023030 | 67 | 264 | 4.0 | 7.0 | 0.00 | 0.00 | 0.00 | 47 | 1016.3 |
| 20260831021608 | 69 | 260 | 5.0 | 11.0 | 0.00 | 0.00 | 0.00 | 44 | 1016.3 |
| 20260831020109 | 70 | 259 | 5.0 | 10.0 | 0.00 | 0.00 | 0.00 | 43 | 1016.2 |
| 20260831014530 | 71 | 259 | 5.0 | 10.0 | 0.00 | 0.00 | 0.00 | 42 | 1016.3 |
| 20260831013028 | 72 | 258 | 6.0 | 11.0 | 0.00 | 0.00 | 0.00 | 41 | 1016.3 |
| 20260831011529 | 73 | 263 | 6.0 | 12.0 | 0.00 | 0.00 | 0.00 | 40 | 1016.3 |
| 20260831004530 | 74 | 257 | 6.0 | 13.0 | 0.00 | 0.00 | 0.00 | 38 | 1016.3 |
| 20260831003030 | 75 | 273 | 5.0 | 9.0 | 0.00 | 0.00 | 0.00 | 37 | 1016.3 |
| 20260831000034 | 76 | 110 | 2.0 | 8.0 | 0.00 | 0.00 | 0.00 | 39 | 1016.3 |
| 20260830234528 | 76 | 331 | 3.0 | 9.0 | 0.00 | 0.00 | 0.00 | 37 | 1016.4 |
| 20260830233030 | 75 | 290 | 3.0 | 9.0 | 0.00 | 0.00 | 0.00 | 36 | 1016.4 |
| 20260830231532 | 75 | 281 | 6.0 | 12.0 | 0.00 | 0.00 | 0.00 | 37 | 1016.4 |
| 20260830230107 | 74 | 294 | 5.0 | 12.0 | 0.00 | 0.00 | 0.00 | 38 | 1016.6 |
| 20260830224532 | 74 | 282 | 5.0 | 12.0 | 0.00 | 0.00 | 0.00 | 39 | 1016.7 |
| 20260830223030 | 74 | 279 | 7.0 | 12.0 | 0.00 | 0.00 | 0.00 | 38 | 1017.0 |
| 20260830220032 | 73 | 295 | 5.0 | 9.0 | 0.00 | 0.00 | 0.00 | 40 | 1017.4 |
| 20260830214602 | 73 | 275 | 7.0 | 14.0 | 0.00 | 0.00 | 0.00 | 39 | 1017.6 |
| 20260830213031 | 73 | 282 | 6.0 | 14.0 | 0.00 | 0.00 | 0.00 | 40 | 1017.8 |
| 20260830203030 | 72 | 37 | 5.0 | 11.0 | 0.00 | 0.00 | 0.00 | 47 | 1018.2 |
| 20260830200031 | 71 | 66 | 6.0 | 12.0 | 0.00 | 0.00 | 0.00 | 46 | 1018.5 |
| 20260830194530 | 71 | 46 | 5.0 | 11.0 | 0.00 | 0.00 | 0.00 | 47 | 1018.6 |
| 20260830193103 | 71 | 65 | 5.0 | 9.0 | 0.00 | 0.00 | 0.00 | 46 | 1018.8 |
| 20260830191530 | 71 | 65 | 5.0 | 9.0 | 0.00 | 0.00 | 0.00 | 45 | 1018.9 |
| 20260830190105 | 70 | 66 | 3.0 | 10.0 | 0.00 | 0.00 | 0.00 | 43 | 1019.0 |
| 20260830184529 | 70 | 11 | 3.0 | 8.0 | 0.00 | 0.00 | 0.00 | 43 | 1019.2 |
| 20260830183033 | 69 | 59 | 4.0 | 7.0 | 0.00 | 0.00 | 0.00 | 45 | 1019.3 |
| 20260830180030 | 67 | 75 | 2.0 | 7.0 | 0.00 | 0.00 | 0.00 | 47 | 1019.5 |
| 20260830174529 | 67 | 57 | 2.0 | 5.0 | 0.00 | 0.00 | 0.00 | 47 | 1019.5 |
| 20260830171530 | 64 | 43 | 1.0 | 5.0 | 0.00 | 0.00 | 0.00 | 52 | 1019.6 |
| 20260830164605 | 62 | 119 | 1.0 | 3.0 | 0.00 | 0.00 | 0.00 | 56 | 1020.0 |
| 20260830163031 | 59 | 150 | 0.0 | 2.0 | 0.00 | 0.00 | 0.00 | 63 | 1020.4 |
| 20260830160108 | 58 | 22 | 0.0 | 1.0 | 0.00 | 0.00 | 0.00 | 70 | 1020.6 |
| 20260830154607 | 55 | 310 | 0.0 | 2.0 | 0.00 | 0.00 | 0.00 | 75 | 1020.7 |
| 20260830151533 | 50 | 202 | 0.0 | 1.0 | 0.00 | 0.00 | 0.00 | 87 | 1020.8 |
| 20260830150030 | 46 | 202 | 0.0 | 1.0 | 0.00 | 0.00 | 0.00 | 89 | 1020.7 |
| 20260830144529 | 43 | 190 | 0.0 | 4.0 | 0.00 | 0.00 | 0.00 | 91 | 1020.7 |
| 20260830143030 | 40 | 164 | 1.0 | 6.0 | 0.00 | 0.00 | 0.00 | 92 | 1020.5 |